Date String (YYYY-MM-DD hh:mm:ss) UTC,Instrument flags,Ambient pressure (hPa),Sample flow (lpm),Bypass flow (lpm),Sample temperature (°C),Ambient temperature (°C),ASC tube jacket temperature (°C),LED temperature (°C),Box temperature (°C),Sample RH (%),Span deviation,Mass concentration (μg/m³),Mass concentration (μg/m³),Mass concentration (μg/m³)
DateTimeUTC,F1_M11,P_M11,Q1_M11,Q2_M11,T1_M11,T2_M11,T3_M11,T4_M11,T5_M11,U1_M11,ZSPAN_M11,X0_M11,X2_M11,X1_M11
2022-01-09 14:00:00,,0834.1,5.01,0.00,22.5,21.7,00.0,31.6,24.2,11.5,0000.0,0003.09,0002.12,0001.78
2022-01-09 14:01:00,,0834.1,5.00,0.00,22.5,21.7,00.0,31.5,24.2,11.5,0000.0,0003.54,0002.15,0001.78
2022-01-09 14:02:00,,0834.1,4.99,0.00,22.5,21.7,00.0,31.5,24.2,11.5,0000.0,0004.14,0002.18,0001.78
2022-01-09 14:03:00,,0834.2,5.00,0.00,22.5,21.9,00.0,31.5,24.2,11.5,0000.0,0004.12,0002.20,0001.78
2022-01-09 14:04:00,,0834.3,5.01,0.00,22.6,22.6,00.0,31.6,24.5,11.4,0000.0,0004.10,0002.19,0001.78
2022-01-09 14:05:00,,0834.3,5.00,0.00,22.7,23.3,00.0,31.6,24.7,11.4,0000.0,0004.06,0002.17,0001.78
2022-01-09 14:06:00,,0834.3,4.99,0.00,22.8,23.2,00.0,31.6,24.8,11.3,0000.0,0004.45,0002.20,0001.79
2022-01-09 14:07:00,,0834.2,4.99,0.00,22.8,23.0,00.0,31.7,24.8,11.3,0000.0,0004.51,0002.22,0001.80
2022-01-09 14:08:00,,0834.1,5.02,0.00,22.8,22.8,00.0,31.7,24.7,11.3,0000.0,0004.49,0002.24,0001.82
2022-01-09 14:09:00,,0834.1,4.99,0.00,22.8,22.6,00.0,31.7,24.6,11.3,0000.0,0004.32,0002.21,0001.83
2022-01-09 14:10:00,,0834.0,5.01,0.00,22.8,22.5,00.0,31.7,24.6,11.3,0000.0,0004.24,0002.21,0001.84
2022-01-09 14:11:00,,0834.0,5.00,0.00,22.8,22.4,00.0,31.7,24.6,11.3,0000.0,0004.53,0002.23,0001.86
2022-01-09 14:12:00,,0834.1,4.99,0.00,22.8,22.3,00.0,31.7,24.6,11.3,0000.0,0004.98,0002.21,0001.88
2022-01-09 14:13:00,,0834.1,5.01,0.00,22.8,22.2,00.0,31.7,24.5,11.3,0000.0,0004.69,0002.22,0001.91
2022-01-09 14:14:00,,0834.0,4.99,0.00,22.8,22.1,00.0,31.7,24.5,11.3,0000.0,0004.66,0002.23,0001.94
2022-01-09 14:15:00,,0834.0,5.02,0.00,22.7,22.1,00.0,31.7,24.5,11.3,0000.0,0005.86,0002.27,0001.97
2022-01-09 14:16:00,,0834.0,4.99,0.00,22.7,22.0,00.0,31.7,24.5,11.3,0000.0,0005.99,0002.30,0002.00
2022-01-09 14:17:00,,0834.0,5.00,0.00,22.7,22.0,00.0,31.7,24.4,11.3,0000.0,0005.65,0002.28,0002.01
2022-01-09 14:18:00,,0834.1,5.00,0.00,22.7,21.9,00.0,31.7,24.4,11.4,0000.0,0005.81,0002.26,0002.00
2022-01-09 14:19:00,,0834.1,5.00,0.00,22.6,21.9,00.0,31.7,24.3,11.4,0000.0,0005.84,0002.26,0002.00
2022-01-09 14:20:00,,0834.1,5.00,0.00,22.6,21.9,00.0,31.7,24.3,11.4,0000.0,0005.91,0002.29,0002.02
2022-01-09 14:21:00,,0834.0,5.00,0.00,22.6,21.8,00.0,31.6,24.3,11.4,0000.0,0005.96,0002.27,0002.03
2022-01-09 14:22:00,,0834.0,5.00,0.00,22.6,21.8,00.0,31.6,24.3,11.5,0000.0,0005.81,0002.25,0002.04
2022-01-09 14:23:00,,0834.1,4.99,0.00,22.6,21.8,00.0,31.6,24.2,11.5,0000.0,0004.81,0002.26,0002.02
2022-01-09 14:24:00,,0834.1,5.01,0.00,22.5,21.7,00.0,31.6,24.2,11.5,0000.0,0004.51,0002.21,0001.99
2022-01-09 14:25:00,,0834.1,5.00,0.00,22.5,21.7,00.0,31.6,24.2,11.5,0000.0,0004.47,0002.18,0001.96
2022-01-09 14:26:00,,0834.1,5.01,0.00,22.5,21.6,00.0,31.6,24.1,11.5,0000.0,0003.52,0002.17,0001.94
2022-01-09 14:27:00,,0834.0,4.98,0.00,22.4,21.6,00.0,31.6,24.0,11.5,0000.0,0003.25,0002.15,0001.91
2022-01-09 14:28:00,,0834.1,5.00,0.00,22.4,21.8,00.0,31.6,24.1,11.5,0000.0,0003.16,0002.13,0001.88
2022-01-09 14:29:00,,0834.0,5.00,0.00,22.5,22.4,00.0,31.6,24.3,11.4,0000.0,0002.91,0002.13,0001.87
2022-01-09 14:30:00,,0834.0,5.00,0.00,22.6,23.1,00.0,31.6,24.5,11.4,0000.0,0002.85,0002.10,0001.85
2022-01-09 14:31:00,,0834.0,5.00,0.00,22.7,23.1,00.0,31.6,24.6,11.3,0000.0,0002.81,0002.09,0001.83
2022-01-09 14:32:00,,0834.0,5.00,0.00,22.7,22.9,00.0,31.6,24.6,11.3,0000.0,0002.80,0002.09,0001.81
2022-01-09 14:33:00,,0834.0,5.00,0.00,22.7,22.6,00.0,31.6,24.5,11.3,0000.0,0004.36,0002.06,0001.78
2022-01-09 14:34:00,,0834.0,4.98,0.00,22.7,22.4,00.0,31.6,24.4,11.3,0000.0,0004.24,0002.00,0001.75
2022-01-09 14:35:00,,0834.0,5.01,0.00,22.6,22.2,00.0,31.6,24.3,11.3,0000.0,0004.29,0001.99,0001.72
2022-01-09 14:36:00,,0834.0,4.99,0.00,22.6,22.0,00.0,31.6,24.2,11.3,0000.0,0004.32,0001.99,0001.70
2022-01-09 14:37:00,,0834.0,5.01,0.00,22.5,21.9,00.0,31.6,24.1,11.3,0000.0,0004.30,0001.95,0001.67
2022-01-09 14:38:00,,0834.0,4.99,0.00,22.5,21.7,00.0,31.6,24.1,11.4,0000.0,0004.27,0001.92,0001.64
2022-01-09 14:39:00,,0834.0,5.01,0.00,22.4,21.7,00.0,31.6,24.0,11.4,0000.0,0004.25,0001.90,0001.62
2022-01-09 14:40:00,,0834.0,5.00,0.00,22.4,21.6,00.0,31.5,24.0,11.4,0000.0,0004.18,0001.86,0001.60
2022-01-09 14:41:00,,0834.1,4.99,0.00,22.4,21.6,00.0,31.5,24.0,11.4,0000.0,0004.22,0001.85,0001.57
2022-01-09 14:42:00,,0834.1,5.02,0.00,22.3,21.6,00.0,31.5,24.0,11.4,0000.0,0004.21,0001.82,0001.55
2022-01-09 14:43:00,,0834.1,4.99,0.00,22.3,21.5,00.0,31.5,24.0,11.4,0000.0,0004.19,0001.79,0001.52
2022-01-09 14:44:00,,0834.1,5.00,0.00,22.3,21.5,00.0,31.5,24.0,11.4,0000.0,0003.34,0001.81,0001.50
2022-01-09 14:45:00,,0834.1,5.00,0.00,22.3,21.5,00.0,31.5,24.0,11.4,0000.0,0003.30,0001.81,0001.50
2022-01-09 14:46:00,,0834.1,4.99,0.00,22.3,21.5,00.0,31.4,24.0,11.4,0000.0,0003.29,0001.81,0001.51
2022-01-09 14:47:00,,0834.1,5.00,0.00,22.3,21.5,00.0,31.4,23.9,11.4,0000.0,0003.98,0001.83,0001.50
2022-01-09 14:48:00,,0834.1,4.99,0.00,22.3,21.5,00.0,31.4,24.0,11.4,0000.0,0004.52,0001.82,0001.50
2022-01-09 14:49:00,,0834.1,5.00,0.00,22.3,21.5,00.0,31.4,24.0,11.5,0000.0,0004.65,0001.82,0001.50
2022-01-09 14:50:00,,0834.1,5.01,0.00,22.3,21.9,00.0,31.4,24.1,11.4,0000.0,0004.74,0001.84,0001.50
2022-01-09 14:51:00,,0834.1,4.99,0.00,22.4,22.7,00.0,31.4,24.3,11.4,0000.0,0004.83,0001.87,0001.51
2022-01-09 14:52:00,,0834.1,5.01,0.00,22.6,23.3,00.0,31.5,24.5,11.3,0000.0,0004.82,0001.88,0001.52
2022-01-09 14:53:00,,0834.1,5.00,0.00,22.6,23.1,00.0,31.5,24.6,11.2,0000.0,0004.82,0001.89,0001.53
2022-01-09 14:54:00,,0834.1,4.99,0.00,22.7,22.9,00.0,31.5,24.6,11.2,0000.0,0004.73,0001.88,0001.54
2022-01-09 14:55:00,,0834.1,5.00,0.00,22.7,22.7,00.0,31.5,24.5,11.2,0000.0,0004.19,0001.89,0001.59
2022-01-09 14:56:00,,0834.1,5.02,0.00,22.7,22.5,00.0,31.5,24.5,11.3,0000.0,0004.12,0001.97,0001.64
2022-01-09 14:57:00,,0834.1,4.99,0.00,22.6,22.4,00.0,31.5,24.4,11.3,0000.0,0004.20,0002.04,0001.70
2022-01-09 14:58:00,,0834.2,5.00,0.00,22.6,22.3,00.0,31.6,24.4,11.3,0000.0,0003.45,0002.04,0001.74
2022-01-09 14:59:00,,0834.2,4.99,0.00,22.6,22.2,00.0,31.6,24.4,11.3,0000.0,0002.95,0002.08,0001.79
